This demonstration page uses our WeatherBlox Daily Observations layout. Learn more.

Left ArrowRight Arrow

Hourly Observations for February 13, 2022

Temp ( °F °C ) Dew Point ( °F °C ) Humidity (%) Winds ( mph kmh ) Pressure ( in mb ) Visibility ( mi km ) Precip ( " mm )
12:53 am 00:53 Clear 27 -2.8 20 -6.7 75 75 SW 13 20 30.14 1021 10 16 0.00 0.00
1:53 am 01:53 Clear 30 -1.1 20 -6.7 66 66 SW 17 28 30.11 1020 10 16 0.00 0.00
2:53 am 02:53 Clear 33 0.6 20 -6.7 58 58 SW 23 37 30.08 1019 10 16 0.00 0.00
3:53 am 03:53 Clear 34 1.1 18 -7.8 52 52 SW 23 37 30.06 1018 10 16 0.00 0.00
4:53 am 04:53 Clear 35 1.7 19 -7.2 52 52 SW 18 30 30.08 1019 10 16 0.00 0.00
5:53 am 05:53 Cloudy 37 2.8 19 -7.2 48 48 SW 20 31 30.09 1019 10 16 0.00 0.00
6:53 am 06:53 Mostly Clear 32 0 19 -7.2 59 59 WSW 9 15 30.15 1021 10 16 0.00 0.00
7:53 am 07:53 Mostly Sunny 33 0.6 19 -7.2 56 56 SW 9 15 30.17 1022 10 16 0.00 0.00
8:53 am 08:53 Sunny 34 1.1 20 -6.7 56 56 SW 10 17 30.20 1023 10 16 0.00 0.00
9:53 am 09:53 Sunny 38 3.3 22 -5.6 52 52 SW 8 13 30.22 1023 10 16 0.00 0.00
10:53 am 10:53 Cloudy 43 6.1 24 -4.4 47 47 WSW 9 15 30.22 1023 10 16 0.00 0.00
11:53 am 11:53 Partly Cloudy 45 7.2 25 -3.9 46 46 W 6 9 30.23 1024 10 16 0.00 0.00
12:53 pm 12:53 Sunny 49 9.4 25 -3.9 39 39 NNW 3 6 30.21 1023 10 16 0.00 0.00
1:53 pm 13:53 Mostly Sunny 50 10 24 -4.4 36 36 NNW 6 9 30.20 1023 10 16 0.00 0.00
2:53 pm 14:53 Mostly Cloudy 47 8.3 24 -4.4 41 41 NNW 7 11 30.19 1022 10 16 0.00 0.00
3:53 pm 15:53 Mostly Sunny 47 8.3 23 -5 39 39 NNW 9 15 30.18 1022 10 16 0.00 0.00
4:53 pm 16:53 Sunny 45 7.2 24 -4.4 44 44 Calm 30.20 1023 10 16 0.00 0.00
5:53 pm 17:53 Mostly Cloudy 42 5.6 23 -5 47 47 NE 5 7 30.20 1023 10 16 0.00 0.00
6:53 pm 18:53 Mostly Cloudy 38 3.3 23 -5 55 55 NE 6 9 30.21 1023 10 16 0.00 0.00
7:53 pm 19:53 Cloudy 34 1.1 22 -5.6 61 61 ESE 5 7 30.22 1023 10 16 0.00 0.00
8:53 pm 20:53 Partly Cloudy 32 0 22 -5.6 66 66 ESE 7 11 30.22 1023 10 16 0.00 0.00
9:53 pm 21:53 Cloudy 35 1.7 23 -5 61 61 E 5 7 30.20 1023 10 16 0.00 0.00
10:53 pm 22:53 Cloudy 35 1.7 23 -5 61 61 ENE 6 9 30.17 1022 10 16 0.00 0.00
11:53 pm 23:53 Cloudy 33 0.6 24 -4.4 70 70 E 8 13 30.16 1021 10 16 0.00 0.00

Powered by AerisWeather